EHI
0 0 0 0 0 0 0 0 0 0 0 0 0 0 0 0 0 0 0 0 0 0 0 0 0 0 0 0 0 0 0 0 0 0 0 0 0 0 0 0 0 0 0
0 0 0 0 0 0 0 0 0 0 0 0 0 0 0 0 0 0 0 0 0 0 0 0 0 0 0 0 0 0 0 0 0 0 0 0 0 0 0 0 0 0 0
0 0 0 0 0 0 0 0 0 0 0 0 0 0 0 0 0 0 0 0 0 0 0 0 0 0 0 0 0 0 0 0 0 0 0 0 0 0 0 0 0 0 0
0 0 0 0 0 0 0 0 0 0 0 0 0 0 0 0 0 0 0 0 0 0 0 0 0 0 0 0 0 0 0 0 0 0 0 0 0 0 0 0 0 0 0
0 0 0 0 0 0 0 0 0 0 0 0 0 0 0 0 0 0 0 0 0 0 0 0 0 0 0 0 0 0 0 0 0 0 0 0 0 0 0 0 0 0 0
0 0 0 0 0 0 0 0 0 0 0 0 0 0 0 0 0 0 0 0 0 0 0 0 0 0 0 0 0 0 0 0 0 0 0 0 0 0 0 0 0 0 0
0 0 0 0 0 0 0 0 0 0 0 0 0 0 0 0 0 0 0 0 0 0 0 0 0 0 0 0 0 0 0 0 0 0 0 0 0 0 0 0 0 0 0
0 0 0 0 0 0 0 0 0 0 0 0 0 0 0 0 0 0 0 0 0 0 0 0 0 0 0 0 0 0 0 0 0 0 0 0 0 0 0 0 0 0 0
0 0 0 0 0 0 0 0 0 0 0 0 0 0 0 0 0 0 0 0 0 0 0 0 0 0 0 0 0 0 0 0 0 0 0 0 0 0 0 0 0 0 0
0 0 0 0 0 0 0 0 0 0 0 0 0 0 0 0 0 0 0 0 0 0 0 0 0 0 0 0 0 0 0 0 0 0 0 0 0 0 0 0 0 0 0
0 0 0 0 0 0 0 0 0 0 0 0 0 0 0 0 0 0 0 0 0 0 0 0 0 0 0 0 0 0 0 0 0 0 0 0 0 0 0 0 0 0 0
0 0 0 0 0 0 0 0 0 0 0 0 0 0 0 0 0 0 0 0 0 0 0 0 0 0 0 0 0 0 0 0 0 0 0 0 0 0 0 0 0 0 0
0 0 0 0 0 0 0 0 0 0 0 0 0 0 0 0 0 0 0 0 0 0 0 0 0 0 0 0 0 0 0 0 0 0 0 0 0 0 0 0 0 0 0
0 0 0 0 0 0 0 0 0 0 0 0 0 0 0 0 0 0 0 0 0 0 0 0 0 0 0 0 0 0 0 0 0 0 0 0 0 0 0 0 0 0 0
0 0 0 0 0 0 0 0 0 0 0 0 0 0 0 0 0 0 0 0 0 0 0 0 0 0 0 0 0 0 0 0 0 0 0 0 0 0 0 0 0 0 0
0 0 0 0 0 0 0 0 0 0 0 0 0 0 0 0 0 0 0 0 0 0 0 0 0 0 0 0 0 0 0 0 0 0 0 0 0 0 0 0 0 0 0
0 0 0 0 0 0 0 0 0 0 0 0 0 0 0 0 0 0 0 0 0 0 0 0 0 0 0 0 0 0 0 0 0 0 0 0 0 0 0 0 0 0 0
0 0 0 0 0 0 0 0 0 0 0 0 0 0 0 0 0 0 0 0 0 0 0 0 0 0 0 0 0 0 0 0 0 0 0 0 0 0 0 0 0 0 0
0 0 0 0 0 0 0 0 0 0 0 0 0 0 0 0 0 0 0 0 0 0 0 0 0 0 0 0 0 0 0 0 0 0 0 0 0 0 0 0 0 0 0
0 0 0 0 0 0 0 0 0 0 0 0 0 0 0 0 0 0 0 0 0 0 0 0 0 0 0 0 0 0 0 0 0 0 0 0 0 0 0 0 0 0 0
0 0 0 0 0 0 0 0 0 0 0 0 0 0 0 0 0 0 0 0 0 0 0 0 0 0 0 0 0 0 0 0 0 0 0 0 0 0 0 0 0 0 0
0 0 0 0 0 0 0 0 0 0 0 0 0 0 0 0 0 0 0 0 0 0 0 0 0 0 0 0 0 0 0 0 0 0 0 0 0 0 0 0 0 0 0
0 0 0 0 0 0 0 0 0 0 0 0 0 0 0 0 0 0 0 0 0 0 0 0 0 0 0 0 0 0 0 0 0 0 0 0 0 0 0 0 0 0 0
0 0 0 0 0 0 0 0 0 0 0 0 0 0 0 0 0 0 0 0 0 0 0 0 0 0 0 0 0 0 0 0 0 0 0 0 0 0 0 0 0 0 0
0 0 0 0 0 0 0 0 0 0 0 0 0 0 0 0 0 0 0 0 0 0 0 0 0 0 0 0 0 0 0 0 0 0 0 0 0 0 0 0 0 0 0
0 0 0 0 0 0 0 0 0 0 0 0 0 0 0 0 0 0 0 0 0 0 0 0 0 0 0 0 0 0 0 0 0 0 0 0 0 0 0 0 0 0 0
Wind_Speed
5 4 3 3 3 3 3 3 3 4 4 4 4 5 5 4 4 3 3 9 11 11 10 9 8 8 8 7 7 7 6 6 5 5 4 4 3 3 2 2 2 2 2
5 5 4 4 3 4 4 4 4 3 3 2 3 4 4 4 4 4 4 5 11 11 11 11 10 9 9 9 8 8 8 8 8 8 7 7 6 5 5 4 3 2 2
5 4 4 3 3 3 4 3 3 2 2 2 3 3 3 3 4 4 4 3 4 8 11 13 12 10 9 9 9 9 8 8 9 9 9 9 9 8 7 6 5 5 4
6 4 3 3 3 2 2 2 2 1 2 2 2 3 3 3 4 4 4 3 3 3 6 10 10 9 8 8 9 9 8 7 7 9 10 10 10 10 10 9 8 7 7
5 4 3 2 2 2 2 2 1 1 2 2 3 3 3 3 4 4 4 4 3 3 2 4 5 5 4 5 7 7 7 6 6 7 8 10 11 12 12 11 10 10 9
4 4 3 2 2 2 1 1 1 1 2 2 3 3 3 4 4 4 5 3 2 2 2 1 1 0 1 2 4 6 7 7 6 6 6 8 9 10 12 12 12 12 11
4 4 3 2 2 2 2 2 1 1 2 1 1 3 3 3 3 3 2 1 1 0 1 2 2 2 2 6 6 6 7 7 7 7 7 7 8 9 10 11 12 13 13
4 3 3 2 2 2 1 1 1 1 1 1 1 1 3 4 3 3 2 1 1 2 3 4 4 4 4 3 5 8 8 8 8 9 8 8 8 9 10 10 11 11 13
4 3 3 2 2 2 2 2 2 2 2 1 2 2 2 3 2 3 3 4 4 4 4 4 6 6 5 4 3 7 9 9 9 9 9 9 8 8 9 8 8 9 9
4 3 3 2 2 1 1 1 1 1 2 2 2 2 2 2 2 2 2 3 5 5 5 5 5 5 5 4 5 8 9 9 9 9 9 9 9 8 7 6 6 6 6
3 4 3 3 2 1 1 1 0 0 1 2 2 1 2 2 3 3 2 1 2 4 4 4 4 4 4 4 3 7 9 9 10 10 9 9 9 9 7 5 5 4 4
3 3 4 3 3 2 1 1 1 0 0 1 1 1 1 2 2 2 3 2 1 2 3 4 4 3 3 4 6 9 10 10 11 11 11 11 10 10 8 6 5 4 3
2 3 3 3 2 2 1 1 1 0 0 0 0 1 1 1 1 1 2 2 1 2 2 3 3 3 3 3 4 9 9 10 10 11 11 11 11 11 9 8 7 6 4
3 3 4 3 3 2 2 1 1 1 1 1 0 0 0 0 1 1 1 2 2 2 2 2 2 2 2 3 5 8 5 10 10 10 11 11 11 11 10 8 8 8 7
3 4 4 3 3 2 2 1 1 1 1 1 1 1 1 1 1 1 1 1 2 3 2 3 2 1 1 2 5 4 4 9 9 9 10 11 11 11 10 10 9 8 8
4 5 4 4 3 2 2 2 1 1 2 1 1 2 1 1 1 1 1 1 0 2 2 2 2 1 2 2 5 4 5 9 10 9 9 10 11 12 12 12 11 11 10
5 5 4 4 3 2 2 2 2 2 2 2 2 2 2 2 2 1 1 1 1 0 2 2 2 1 2 2 3 3 3 4 5 9 10 9 10 11 11 12 12 12 12
5 5 4 4 3 3 2 2 2 2 2 2 2 2 2 2 2 2 2 1 1 1 2 3 2 1 2 2 2 2 3 4 4 7 9 9 10 10 11 11 11 11 11
5 4 4 4 3 3 3 3 3 3 3 3 3 3 2 2 2 2 2 1 1 1 1 3 2 1 1 1 2 2 3 3 4 6 8 9 9 9 9 9 10 10 10
5 4 4 4 3 3 3 3 4 4 4 3 3 3 2 2 2 2 1 1 1 2 2 3 2 2 2 1 2 1 2 3 3 4 6 6 8 9 9 9 8 8 8
5 5 4 4 3 3 3 4 4 4 4 4 3 2 2 2 3 2 1 1 1 2 2 2 2 2 1 1 1 0 1 1 2 3 3 3 4 3 5 6 7 7 6
4 4 4 4 4 3 6 7 5 4 4 4 3 2 2 3 4 5 5 4 3 3 2 2 2 2 2 1 1 1 1 1 1 2 2 2 2 2 3 3 5 6 6
5 4 4 4 4 4 7 7 7 5 4 3 3 2 1 2 3 3 5 7 6 5 3 4 4 3 3 3 3 1 1 1 1 2 1 1 2 2 2 4 6 4 5
4 4 4 5 4 5 8 8 8 4 3 3 3 3 3 2 2 3 3 3 3 3 3 3 3 3 3 3 3 3 2 1 1 1 1 0 2 2 3 3 6 5 5
4 4 4 5 5 5 8 9 8 4 3 3 2 3 4 3 5 6 4 3 2 2 4 6 6 5 4 4 4 3 2 2 0 1 2 1 1 2 2 2 4 6 6
4 4 4 5 5 4 8 9 9 3 3 2 2 2 5 6 6 6 4 3 2 1 1 2 3 4 4 3 4 3 3 2 1 1 1 1 1 2 2 2 2 3 4
Wind_Direction
178 181 192 196 201 202 212 223 232 242 249 246 239 236 244 248 246 237 240 234 233 234 236 235 235 237 240 243 244 239 234 233 230 223 220 216 214 208 193 175 155 140 112
174 177 185 191 200 204 209 213 218 225 237 240 246 242 244 251 252 248 241 241 240 240 240 242 243 244 248 251 252 249 242 236 233 229 226 223 222 223 219 214 206 198 182
169 169 173 183 197 198 200 204 220 223 244 252 265 269 267 268 270 262 251 236 241 241 242 246 248 249 254 261 265 263 255 243 237 234 231 227 224 224 223 221 219 214 210
164 161 164 181 189 180 178 188 202 228 257 266 273 280 282 282 275 267 260 247 236 237 241 245 249 254 261 271 279 283 280 266 252 243 237 232 228 226 224 222 220 218 216
162 158 167 180 176 170 181 197 199 204 245 268 273 274 275 272 271 273 266 255 242 233 229 236 239 251 272 292 303 312 315 309 288 266 253 243 237 230 226 224 222 220 219
161 158 163 176 165 157 180 197 217 220 230 253 274 278 273 269 270 267 263 262 248 233 206 189 186 215 24 360 349 344 343 342 332 309 281 264 251 241 234 230 227 225 222
154 154 159 163 157 165 190 197 196 228 252 246 294 306 300 288 288 287 282 270 280 272 118 115 107 93 72 59 40 25 11 360 346 331 311 289 270 259 250 242 233 230 227
148 148 152 154 154 156 158 175 169 191 245 186 181 288 315 327 334 351 2 26 37 57 71 73 80 79 74 64 45 39 24 5 349 337 325 308 289 271 261 254 244 235 231
139 137 143 145 147 156 178 198 187 189 229 244 199 199 230 263 308 335 18 36 42 49 53 59 66 67 66 58 41 31 27 11 352 338 328 321 308 289 274 267 258 245 238
123 121 118 121 125 131 163 215 194 198 200 234 250 227 219 210 236 299 342 34 45 44 44 54 59 58 54 49 44 35 26 12 360 345 341 334 330 318 303 288 274 256 241
110 110 109 107 105 103 114 111 119 209 205 215 221 236 245 236 222 224 256 309 55 38 39 47 53 50 43 40 33 32 27 17 7 356 350 349 347 345 337 323 304 298 265
103 102 101 98 95 91 88 86 76 62 277 245 234 227 226 235 225 218 230 224 162 83 48 42 46 44 39 33 33 31 25 22 15 10 10 14 10 6 359 1 353 338 321
142 138 115 109 103 96 86 82 85 49 14 175 236 251 254 248 243 224 224 220 180 145 113 55 35 35 40 29 22 24 23 24 20 17 18 21 19 15 12 10 10 9 2
145 137 122 116 108 95 84 78 75 43 66 77 42 32 12 352 331 260 221 196 204 174 148 138 57 39 36 30 31 29 18 30 32 28 25 25 22 19 20 24 25 22 22
132 128 122 113 101 90 83 84 80 53 67 59 50 53 74 45 22 2 339 218 198 202 188 148 132 47 35 47 38 30 20 29 35 35 32 29 26 28 31 33 34 33 35
128 128 119 114 107 95 84 87 95 92 93 72 64 72 67 46 36 24 14 357 273 199 167 126 126 108 48 61 52 39 30 32 31 37 40 39 36 38 40 41 41 44 48
131 131 131 126 121 113 104 109 113 102 103 84 71 80 68 58 53 27 25 27 21 95 158 119 105 98 71 56 35 29 34 27 15 37 45 45 43 43 45 46 46 46 47
133 131 128 125 125 121 116 122 118 104 105 101 85 83 66 66 56 39 40 42 34 30 140 144 124 114 86 64 46 41 32 27 12 29 43 45 45 47 49 47 45 44 43
128 125 125 131 132 129 120 118 118 107 98 94 90 91 81 85 68 49 48 41 20 28 78 128 126 110 92 68 57 40 37 19 10 23 35 39 42 46 47 47 45 42 40
134 133 132 136 137 133 127 126 122 116 107 95 89 88 87 95 104 87 66 46 59 72 84 106 113 109 97 76 82 61 37 17 8 7 19 29 36 38 38 41 42 41 38
145 145 141 140 140 141 148 144 139 135 128 114 94 80 82 102 116 118 117 112 109 107 107 111 115 107 101 94 106 65 75 7 3 8 356 6 13 16 13 16 27 36 34
148 151 156 157 163 166 168 167 153 142 139 136 126 95 70 60 73 77 87 95 119 136 145 134 129 139 149 146 127 99 101 84 320 347 12 350 9 9 349 341 3 22 24
160 163 164 164 169 177 178 174 164 146 146 151 154 155 141 106 81 63 66 59 53 72 129 149 147 160 162 175 151 127 129 144 215 316 8 336 351 339 328 339 352 16 21
166 168 171 171 171 189 185 177 164 141 145 162 174 177 168 165 161 139 109 75 49 40 74 97 132 150 158 162 164 160 160 128 78 8 30 344 333 321 326 332 348 15 19
169 174 174 173 176 191 191 181 161 143 153 171 185 187 182 193 198 159 133 117 80 41 84 114 126 134 137 146 146 118 114 99 98 342 9 55 335 323 319 319 339 5 9
177 174 178 181 181 193 200 192 177 158 169 185 199 210 205 201 205 174 155 155 162 186 102 86 75 66 56 61 96 121 142 137 156 250 336 61 5 4 334 312 320 338 353